Total_Precipitation_Accumulation
1.64 1.84 1.84 1.71 1.68 1.77 1.71 1.67 1.80 1.84 1.82 1.87 1.88 1.86 1.85 1.99 2.20 2.41 2.38 2.54 2.66 2.72 2.71 2.62 2.50 2.55 2.70 2.64 2.76 2.91 3.13 3.34 3.10 2.77 2.64 2.58 2.56 2.36 2.19 1.90 1.66 1.52 1.40
1.89 2.15 2.16 1.87 1.67 1.61 1.50 1.51 1.68 1.86 1.89 1.85 1.84 1.81 1.78 1.88 2.15 2.33 2.45 2.69 2.82 2.74 2.66 2.60 2.48 2.59 2.69 2.67 2.73 2.74 2.80 3.07 3.00 2.80 2.75 2.78 2.66 2.43 2.30 2.10 1.75 1.55 1.55
1.71 1.99 1.97 1.72 1.52 1.49 1.50 1.54 1.67 1.80 1.81 1.77 1.79 1.86 1.98 2.10 2.30 2.43 2.53 2.71 2.67 2.57 2.59 2.51 2.40 2.46 2.42 2.49 2.53 2.51 2.50 2.61 2.78 2.70 2.61 2.69 2.60 2.40 2.31 2.14 2.01 2.09 1.91
1.29 1.55 1.57 1.42 1.36 1.38 1.45 1.47 1.46 1.50 1.56 1.63 1.83 2.07 2.23 2.36 2.44 2.49 2.49 2.47 2.46 2.37 2.28 2.20 2.21 2.31 2.37 2.37 2.30 2.29 2.35 2.49 2.59 2.61 2.59 2.67 2.68 2.64 2.49 2.36 2.37 2.32 2.16
1.19 1.39 1.36 1.31 1.31 1.28 1.29 1.37 1.43 1.50 1.55 1.77 1.94 2.05 2.09 2.15 2.23 2.34 2.34 2.28 2.24 2.15 2.04 1.86 1.89 2.18 2.31 2.28 2.12 2.19 2.27 2.38 2.47 2.58 2.62 2.71 2.77 2.91 2.67 2.41 2.32 2.38 2.26
1.08 1.29 1.28 1.25 1.23 1.17 1.22 1.31 1.47 1.58 1.74 1.92 1.93 1.91 1.88 1.64 1.74 1.86 1.89 1.91 1.91 1.88 1.78 1.71 1.73 1.82 1.84 1.89 1.89 1.89 1.94 2.02 2.23 2.49 2.60 2.59 2.57 2.66 2.72 2.59 2.49 2.44 2.41
1.09 1.25 1.31 1.28 1.30 1.28 1.25 1.41 1.61 1.78 1.93 2.04 2.00 1.94 1.83 1.75 1.66 1.54 1.52 1.56 1.69 1.72 1.74 1.79 1.57 1.43 1.55 1.58 1.71 1.70 1.63 1.70 1.81 2.07 2.28 2.30 2.37 2.37 2.60 2.62 2.66 2.73 2.70
1.14 1.34 1.41 1.36 1.40 1.49 1.49 1.58 1.81 2.03 2.17 2.19 2.14 2.04 1.97 1.91 1.81 1.60 1.54 1.50 1.62 1.66 1.65 1.68 1.64 1.55 1.52 1.62 1.69 1.64 1.51 1.46 1.43 1.41 1.64 1.92 2.12 2.33 2.37 2.44 2.57 2.66 2.67
1.21 1.38 1.50 1.53 1.60 1.62 1.66 1.84 2.07 2.25 2.29 2.28 2.31 2.21 2.14 2.17 2.01 1.65 1.49 1.44 1.60 1.64 1.64 1.59 1.55 1.51 1.55 1.43 1.41 1.44 1.43 1.40 1.25 1.24 1.32 1.53 1.72 1.77 1.96 2.22 2.45 2.44 2.40
1.53 1.63 1.82 1.99 2.15 2.21 2.24 2.29 2.34 2.43 2.39 2.40 2.34 2.31 2.21 2.18 2.07 1.58 1.34 1.33 1.52 1.57 1.63 1.60 1.50 1.37 1.34 1.22 1.22 1.37 1.35 1.33 1.34 1.27 1.18 1.20 1.29 1.44 1.52 1.59 1.90 2.10 2.02
1.86 1.94 2.14 2.42 2.59 2.59 2.59 2.52 2.43 2.44 2.47 2.43 2.31 2.26 2.20 2.11 2.02 1.60 1.41 1.42 1.57 1.66 1.65 1.61 1.55 1.41 1.21 1.16 1.13 1.19 1.25 1.21 1.27 1.31 1.27 1.22 1.30 1.42 1.39 1.35 1.51 1.72 1.79
2.15 2.29 2.47 2.68 2.62 2.56 2.73 2.65 2.61 2.67 2.65 2.49 2.36 2.25 2.25 2.19 2.00 1.69 1.46 1.50 1.64 1.75 1.81 1.77 1.68 1.46 1.21 1.12 1.05 1.04 1.02 0.94 0.98 1.12 1.16 1.11 1.14 1.25 1.33 1.32 1.37 1.40 1.45
2.37 2.51 2.58 2.63 2.78 2.92 2.98 2.88 2.78 2.73 2.63 2.42 2.29 2.15 2.07 2.12 2.15 1.75 1.47 1.52 1.59 1.63 1.79 1.83 1.56 1.32 1.16 1.00 0.98 0.97 0.88 0.82 0.93 1.00 0.99 0.97 0.96 1.06 1.26 1.40 1.45 1.46 1.40
2.23 2.23 2.31 2.45 2.58 2.68 2.91 2.96 2.85 2.69 2.59 2.50 2.38 2.21 2.09 2.11 2.12 1.79 1.48 1.45 1.51 1.49 1.57 1.64 1.49 1.31 1.16 1.03 0.98 0.93 0.88 0.91 0.99 1.00 1.01 1.04 1.05 1.11 1.19 1.27 1.38 1.43 1.41
2.21 2.14 2.10 2.13 2.27 2.38 2.48 2.54 2.50 2.47 2.28 2.16 2.05 1.96 1.93 1.96 1.94 1.68 1.48 1.46 1.55 1.60 1.56 1.58 1.56 1.42 1.29 1.18 1.15 1.18 1.19 1.14 1.06 1.05 1.08 1.11 1.10 1.10 1.15 1.21 1.28 1.32 1.26
2.03 1.96 1.96 1.95 2.04 2.09 2.10 2.03 1.85 1.77 1.61 1.45 1.38 1.31 1.32 1.38 1.51 1.36 1.23 1.30 1.44 1.49 1.38 1.39 1.50 1.50 1.42 1.34 1.27 1.27 1.26 1.20 1.13 1.13 1.11 1.10 1.08 1.05 1.08 1.12 1.16 1.17 1.16
1.95 1.81 1.70 1.67 1.74 1.76 1.81 1.92 1.97 1.74 1.53 1.33 1.18 1.04 1.02 1.11 1.20 1.20 1.15 1.15 1.24 1.26 1.19 1.24 1.34 1.39 1.35 1.32 1.26 1.23 1.19 1.20 1.20 1.15 1.10 1.12 1.10 1.05 1.05 1.08 1.10 1.16 1.15
1.89 1.79 1.68 1.65 1.70 1.73 1.77 1.84 1.97 1.97 1.70 1.34 1.18 1.06 0.92 0.88 0.89 0.93 0.93 0.97 1.03 1.05 1.05 1.12 1.17 1.22 1.23 1.23 1.22 1.21 1.17 1.18 1.17 1.15 1.12 1.12 1.12 1.08 1.09 1.10 1.07 1.09 1.15
1.74 1.68 1.62 1.64 1.66 1.68 1.77 1.81 1.81 1.85 1.74 1.51 1.26 1.03 0.87 0.75 0.75 0.80 0.79 0.83 0.97 1.00 0.98 1.00 1.01 1.03 1.07 1.12 1.13 1.17 1.16 1.13 1.13 1.17 1.13 1.11 1.13 1.15 1.16 1.16 1.16 1.17 1.17
1.63 1.52 1.42 1.45 1.46 1.43 1.47 1.55 1.56 1.60 1.56 1.44 1.27 1.01 0.79 0.69 0.75 0.82 0.80 0.89 0.99 0.98 0.93 0.96 0.92 0.91 0.96 1.03 1.09 1.15 1.14 1.15 1.19 1.16 1.14 1.13 1.12 1.14 1.13 1.15 1.18 1.21 1.23
1.58 1.37 1.13 1.04 1.13 1.23 1.32 1.39 1.39 1.37 1.38 1.34 1.15 0.88 0.67 0.60 0.71 0.84 0.92 0.95 0.94 0.94 0.90 0.86 0.81 0.83 0.88 0.93 0.98 1.02 1.09 1.16 1.15 1.13 1.15 1.12 1.07 1.08 1.07 1.09 1.09 1.12 1.18
1.46 1.33 1.14 1.02 1.05 1.11 1.19 1.30 1.31 1.25 1.21 1.17 1.04 0.84 0.68 0.59 0.68 0.78 0.85 0.84 0.83 0.85 0.82 0.78 0.75 0.78 0.82 0.87 0.94 0.99 1.02 1.05 1.06 1.08 1.09 1.09 1.09 1.08 1.09 1.15 1.17 1.17 1.19
1.37 1.29 1.17 1.08 1.10 1.10 1.13 1.21 1.17 1.11 1.08 1.03 0.96 0.85 0.73 0.72 0.76 0.82 0.85 0.84 0.84 0.80 0.76 0.75 0.71 0.71 0.77 0.82 0.85 0.91 0.97 0.97 0.99 1.01 1.07 1.10 1.10 1.12 1.17 1.22 1.20 1.16 1.16
1.21 1.17 1.04 0.99 1.01 1.04 1.02 1.04 1.00 0.96 0.92 0.88 0.83 0.79 0.76 0.78 0.79 0.79 0.81 0.81 0.79 0.72 0.68 0.68 0.70 0.73 0.76 0.80 0.79 0.78 0.81 0.84 0.85 0.90 0.96 1.02 1.06 1.15 1.24 1.27 1.23 1.19 1.24
1.12 1.15 1.06 0.99 0.98 0.99 0.97 0.96 0.91 0.88 0.84 0.78 0.75 0.74 0.73 0.74 0.75 0.78 0.78 0.74 0.68 0.67 0.64 0.65 0.71 0.71 0.67 0.68 0.68 0.67 0.75 0.75 0.73 0.80 0.91 1.04 1.08 1.17 1.29 1.33 1.31 1.30 1.37
1.00 1.03 0.99 0.92 0.88 0.88 0.88 0.92 0.90 0.83 0.78 0.73 0.71 0.71 0.67 0.62 0.62 0.63 0.63 0.62 0.62 0.63 0.63 0.65 0.67 0.68 0.66 0.64 0.65 0.69 0.69 0.66 0.69 0.78 0.80 0.88 1.00 1.11 1.19 1.24 1.20 1.27 1.35